Location: Sommers-Bausch Observatory
(40.0037°N, 105.2635°W)
Time: 22:16:21
(UTC-06:00)

Amateur Radio Satellites - All Passes

Search period start: 23 October 2017 21:46
Search period end: 24 October 2017 21:46
Location: Sommers-Bausch Observatory, 40.0037°N, 105.2635°W

Satellite Date Start Highest point End Downlink Frequencies (MHz)
Time Altitude Azimuth
BEESAT 2 23 Oct 21:53:54 21:57:43 41° 244° (WSW) 22:01:27 435.950
YUBILEINY 23 Oct 21:57:37 22:05:32 39° 274° (W) 22:13:27 435.215
ZACube-1 23 Oct 22:00:30 22:01:52 11° 271° (W) 22:03:13 437.345
UNISAT 6 23 Oct 22:03:22 22:06:57 22° 94° (E) 22:10:26 437.425
AO-85 23 Oct 22:11:47 22:16:16 49° 243° (WSW) 22:21:03 145.980
TIGRISAT 23 Oct 22:16:47 22:20:43 28° 95° (E) 22:24:33 435.000
STRAND 1 23 Oct 22:21:54 22:23:27 11° 301° (WNW) 22:25:00 437.568
EO-88 23 Oct 22:42:25 22:45:48 37° 262° (W) 22:49:13 145.990 - 145.960
DELFI C3 23 Oct 22:58:38 23:00:47 14° 268° (W) 23:02:56 145.870
Max Valier Satellite 23 Oct 23:02:35 23:04:58 16° 267° (W) 23:07:21 145.860
RS-15 23 Oct 23:17:51 23:28:29 37° 105° (ESE) 23:39:10 29.354- 29.394
FO-29 23 Oct 23:18:08 23:24:06 30° 295° (WNW) 23:30:30 435.910
LO-87 23 Oct 23:18:45 23:22:19 67° 76° (ENE) 23:25:55 145.935 - 145.965
SPROUT 23 Oct 23:23:33 23:25:26 13° 63° (ENE) 23:27:19 437.525
ESTCUBE 1 23 Oct 23:28:12 23:32:36 60° 74° (ENE) 23:37:01 437.505/2401.250
PRISM 23 Oct 23:30:50 23:34:59 85° 104° (ESE) 23:39:08 437.425
UNISAT 6 23 Oct 23:39:35 23:43:41 33° 290° (WNW) 23:47:42 437.425
EO-79 23 Oct 23:48:30 23:49:58 12° 90° (E) 23:51:26 145.935-145.965
TIGRISAT 23 Oct 23:53:29 23:57:17 26° 292° (WNW) 00:01:00 435.000
POLYITAN 1 23 Oct 23:53:49 23:55:56 13° 91° (E) 23:58:04 437.675
AIST 2D 24 Oct 00:11:04 00:14:32 67° 101° (E) 00:17:59 435.315
NANOSAT C BR1 24 Oct 00:12:34 00:15:42 20° 94° (E) 00:18:47 145.865
QB50P2 24 Oct 00:13:14 00:16:47 25° 95° (E) 00:20:18 145.880/145.840
DUCHIFAT 1 24 Oct 00:20:53 00:24:08 21° 94° (E) 00:27:21 145.980
VELOX 1 24 Oct 00:36:31 00:40:47 55° 73° (ENE) 00:45:05 145.980
50 SAT 24 Oct 00:37:46 00:38:47 11° 66° (ENE) 00:39:48 437.505
NO-84 24 Oct 00:50:56 00:52:55 13° 121° (ESE) 00:54:55 435.350 FM
SPROUT 24 Oct 00:56:35 01:00:47 59° 259° (W) 01:05:03 437.525
ESTCUBE 1 24 Oct 01:07:59 01:09:45 12° 269° (W) 01:11:32 437.505/2401.250
EO-79 24 Oct 01:21:53 01:26:04 56° 287° (WNW) 01:30:12 145.935-145.965
POLYITAN 1 24 Oct 01:27:52 01:31:59 48° 287° (WNW) 01:36:03 437.675
RS-15 24 Oct 01:27:58 01:40:13 68° 307° (NW) 01:52:30 29.354- 29.394
DX 1 24 Oct 01:29:48 01:33:59 51° 73° (ENE) 01:38:12 434.975-435.025
UKube-1 24 Oct 01:45:15 01:49:21 47° 72° (ENE) 01:53:30 .
BUGSAT 1 24 Oct 01:47:04 01:51:11 50° 100° (E) 01:55:13 437.445
NANOSAT C BR1 24 Oct 01:47:39 01:51:27 33° 290° (WNW) 01:55:13 145.865
QB50P2 24 Oct 01:48:56 01:52:29 26° 291° (WNW) 01:56:00 145.880/145.840
Gurwin Techsat 1B 24 Oct 01:54:28 01:58:30 21° 94° (E) 02:02:30 435.225
DUCHIFAT 1 24 Oct 01:56:05 01:59:48 30° 290° (WNW) 02:03:28 145.980
50 SAT 24 Oct 02:07:42 02:10:42 35° 261° (W) 02:13:44 437.505
M-CUBED/EXP-1 PRIME 24 Oct 02:12:51 02:15:45 21° 102° (ESE) 02:18:49 437.505
VELOX 1 24 Oct 02:15:37 02:17:33 13° 269° (W) 02:19:29 145.980
NO-84 24 Oct 02:25:30 02:29:47 84° 314° (NW) 02:34:05 435.350 FM
Oscar 19 24 Oct 02:28:51 02:33:58 66° 102° (ESE) 02:39:02 437.125/150
ITUPSAT 1 24 Oct 02:52:48 02:57:05 33° 69° (ENE) 03:01:24 437.325
AO-7 24 Oct 02:56:59 03:01:18 15° 90° (E) 03:05:37 .
BEESAT 24 Oct 03:05:09 03:09:41 45° 71° (ENE) 03:14:16 436.000
DX 1 24 Oct 03:08:20 03:10:28 13° 268° (W) 03:12:35 434.975-435.025
MOZHAYETS 4 24 Oct 03:20:55 03:25:32 72° 76° (ENE) 03:30:10
UKube-1 24 Oct 03:23:17 03:25:37 14° 268° (W) 03:27:57 .
BUGSAT 1 24 Oct 03:23:54 03:26:04 14° 296° (WNW) 03:28:13 437.445
Gurwin Techsat 1B 24 Oct 03:33:34 03:38:38 46° 289° (WNW) 03:43:41 435.225
CUBESAT XI-V 24 Oct 03:44:04 03:47:56 27° 69° (ENE) 03:51:49 437.345
RS-15 24 Oct 03:45:41 03:55:36 27° 335° (NNW) 04:05:24 29.354- 29.394
M-CUBED/EXP-1 PRIME 24 Oct 03:47:01 03:50:07 26° 294° (WNW) 03:53:24 437.505
NO-84 24 Oct 04:04:36 04:07:45 19° 335° (NNW) 04:10:51 435.350 FM
Oscar 19 24 Oct 04:09:46 04:12:43 16° 298° (WNW) 04:15:39 437.125/150
KKS-1 24 Oct 04:19:14 04:22:19 19° 65° (ENE) 04:25:24 437.445
ITUPSAT 1 24 Oct 04:30:57 04:34:55 25° 265° (W) 04:38:54 437.325
STARS 24 Oct 04:41:10 04:43:08 13° 62° (ENE) 04:45:06 437.465
BEESAT 24 Oct 04:44:21 04:47:39 18° 267° (W) 04:50:59 436.000
AO-7 24 Oct 04:46:49 04:55:10 82° 107° (ESE) 05:03:31 .
ITAMSAT 1 24 Oct 04:49:45 04:55:00 85° 104° (ESE) 05:00:14 435.822/435.867
MOZHAYETS 4 24 Oct 05:02:16 05:03:09 10° 271° (W) 05:04:02
CUBESAT XI-V 24 Oct 05:21:14 05:25:12 28° 264° (W) 05:29:12 437.345
O/OREOS (USA 219) 24 Oct 05:22:26 05:26:22 27° 60° (ENE) 05:30:16 437.305
SO-50 24 Oct 05:24:46 05:28:25 25° 113° (ESE) 05:32:06 436.795
DOVE 4 24 Oct 05:31:00 05:35:36 33° 96° (E) 05:40:19 437.250
NO-84 24 Oct 05:46:21 05:46:33 10° 356° (N) 05:46:45 435.350 FM
KKS-1 24 Oct 05:54:22 05:58:32 40° 261° (W) 06:02:46 437.445
RS-15 24 Oct 06:05:15 06:14:01 22° 11° (N) 06:22:31 29.354- 29.394
KAITUO 1B 24 Oct 06:13:36 06:14:24 11° 91° (E) 06:15:12 145.475/437.950
STARS 24 Oct 06:14:35 06:18:55 62° 259° (W) 06:23:19 437.465
STRAND 1 24 Oct 06:18:37 06:21:32 15° 61° (ENE) 06:24:27 437.568
NUDT-PHONESAT 24 Oct 06:19:50 06:21:22 12° 92° (E) 06:22:54 437.300
XW-2F 24 Oct 06:21:17 06:23:53 18° 94° (E) 06:26:29 145.980 - 146.000
ITAMSAT 1 24 Oct 06:31:31 06:33:43 13° 301° (WNW) 06:35:54 435.822/435.867
LilacSat-2 24 Oct 06:35:09 06:38:33 31° 97° (E) 06:41:54 437.200
XW-2D 24 Oct 06:36:36 06:39:57 31° 97° (E) 06:43:18 145.860 - 145.880
AO-7 24 Oct 06:40:54 06:47:01 24° 306° (NW) 06:53:08 .
PCSat 24 Oct 06:43:54 06:47:54 21° 106° (ESE) 06:51:55 145.827
XW-2B 24 Oct 06:50:01 06:53:37 44° 99° (E) 06:57:12 145.730 - 145.750
O/OREOS (USA 219) 24 Oct 07:01:46 07:05:44 29° 257° (WSW) 07:09:39 437.305
SO-50 24 Oct 07:04:36 07:08:43 34° 310° (NW) 07:12:51 436.795
DOVE 4 24 Oct 07:08:45 07:13:09 30° 291° (WNW) 07:17:39 437.250
XW-2C 24 Oct 07:13:26 07:17:11 86° 284° (WNW) 07:20:55 145.795 - 145.815
NO-84 24 Oct 07:23:24 07:25:32 14° 17° (NNE) 07:27:35 435.350 FM
CUTE-I 24 Oct 07:29:25 07:34:50 87° 101° (E) 07:40:13 437.470
KAITUO 1B 24 Oct 07:45:05 07:48:37 45° 286° (WNW) 07:52:08 145.475/437.950
HO-68 24 Oct 07:46:19 07:53:15 47° 100° (E) 08:00:07 435.675
FO-29 24 Oct 07:46:55 07:50:29 18° 60° (ENE) 07:54:15 435.910
NUDT-PHONESAT 24 Oct 07:51:59 07:55:23 38° 287° (WNW) 07:58:47 437.300
nSIGHT-1 24 Oct 07:54:32 07:56:55 20° 132° (SE) 07:59:19 .
XW-2F 24 Oct 07:54:49 07:58:00 27° 289° (WNW) 08:01:10 145.980 - 146.000
STRAND 1 24 Oct 07:55:01 08:00:07 68° 258° (WSW) 08:05:16 437.568
SEEDS 24 Oct 08:02:09 08:06:04 39° 98° (E) 08:09:59 437.485
CUTE 1.7 + AOD 2 24 Oct 08:03:29 08:07:40 69° 102° (ESE) 08:11:51 437.475
LilacSat-2 24 Oct 08:10:07 08:12:33 17° 292° (WNW) 08:14:59 437.200
XW-2D 24 Oct 08:11:28 08:13:52 16° 293° (WNW) 08:16:15 145.860 - 145.880
ZACube-1 24 Oct 08:11:29 08:13:33 13° 90° (E) 08:15:34 437.345
AAUSAT CUBESAT 2 24 Oct 08:13:05 08:16:20 22° 95° (E) 08:19:35 437.432
CUBEBUG 2 24 Oct 08:13:23 08:17:51 50° 99° (E) 08:22:09 437.445
XW-2A 24 Oct 08:17:04 08:20:01 29° 97° (E) 08:22:56 145.665 - 145.685
RS-15 24 Oct 08:19:20 08:30:46 46° 44° (NE) 08:41:33 29.354- 29.394
PCSat 24 Oct 08:25:38 08:30:54 51° 303° (WNW) 08:36:12 145.827
XW-2B 24 Oct 08:25:51 08:27:23 12° 294° (WNW) 08:28:54 145.730 - 145.750
ISS 24 Oct 08:37:49 08:40:57 48° 138° (SE) 08:44:06 437.550
Oscar 11 24 Oct 08:39:43 08:42:29 17° 92° (E) 08:45:15 .
UWE-3 24 Oct 08:42:10 08:46:34 59° 100° (E) 08:50:49 435.000/436.395/437.385
NO-84 24 Oct 08:59:57 09:03:48 48° 38° (NE) 09:07:19 435.350 FM
YUBILEINY 24 Oct 09:00:26 09:08:44 53° 90° (E) 09:17:06 435.215
UNISAT 6 24 Oct 09:01:30 09:04:52 20° 66° (ENE) 09:08:15 437.425
CUTE-I 24 Oct 09:11:49 09:14:06 13° 301° (WNW) 09:16:23 437.470
TIGRISAT 24 Oct 09:14:34 09:18:19 25° 67° (ENE) 09:22:06 435.000
AO-73 24 Oct 09:20:57 09:25:16 74° 101° (ESE) 09:29:27 145.935
FO-29 24 Oct 09:29:47 09:34:58 59° 260° (W) 09:40:37 435.910
nSIGHT-1 24 Oct 09:29:57 09:33:00 41° 329° (NNW) 09:36:03 .
HO-68 24 Oct 09:34:27 09:40:44 34° 297° (WNW) 09:46:59 435.675
SEEDS 24 Oct 09:38:43 09:41:26 17° 294° (WNW) 09:44:08 437.485
CUTE 1.7 + AOD 2 24 Oct 09:42:12 09:42:54 10° 297° (WNW) 09:43:37 437.475
ZACube-1 24 Oct 09:45:56 09:50:09 49° 286° (WNW) 09:54:13 437.345
AAUSAT CUBESAT 2 24 Oct 09:48:14 09:51:45 28° 290° (WNW) 09:55:17 437.432
XW-2A 24 Oct 09:50:42 09:52:27 14° 293° (WNW) 09:54:10 145.665 - 145.685
CUBEBUG 2 24 Oct 09:51:14 09:53:59 16° 296° (WNW) 09:56:40 437.445
EO-88 24 Oct 10:12:03 10:14:32 17° 94° (E) 10:17:01 145.990 - 145.960
BEESAT 3 24 Oct 10:14:27 10:16:15 13° 109° (ESE) 10:18:04 437.485
Oscar 11 24 Oct 10:14:45 10:18:46 40° 288° (WNW) 10:22:46 .
ISS 24 Oct 10:14:53 10:17:34 23° 335° (NNW) 10:20:16 437.550
PRISM 24 Oct 10:19:02 10:22:58 52° 73° (ENE) 10:26:55 437.425
UWE-3 24 Oct 10:20:23 10:22:27 13° 297° (WNW) 10:24:29 435.000/436.395/437.385
Max Valier Satellite 24 Oct 10:31:27 10:34:58 44° 99° (E) 10:38:28 145.860
RS-15 24 Oct 10:32:09 10:43:34 58° 248° (WSW) 10:54:23 29.354- 29.394
DELFI C3 24 Oct 10:33:43 10:37:42 71° 101° (ESE) 10:41:39 145.870
UNISAT 6 24 Oct 10:36:49 10:41:14 42° 262° (W) 10:45:43 437.425
NO-84 24 Oct 10:38:11 10:40:48 18° 236° (WSW) 10:43:16 435.350 FM
AIST 2D 24 Oct 10:44:58 10:47:39 21° 70° (ENE) 10:50:19 435.315
POLYITAN 1 24 Oct 10:47:24 10:48:05 10° 62° (ENE) 10:48:46 437.675
TIGRISAT 24 Oct 10:50:35 10:54:47 33° 263° (W) 10:59:04 435.000
YUBILEINY 24 Oct 10:58:13 11:05:50 33° 289° (WNW) 11:13:32 435.215
NANOSAT C BR1 24 Oct 11:04:41 11:07:01 15° 65° (ENE) 11:09:22 145.865
QB50P2 24 Oct 11:05:31 11:08:29 19° 66° (ENE) 11:11:28 145.880/145.840
nSIGHT-1 24 Oct 11:08:23 11:09:56 13° 347° (NNW) 11:11:30 .
DUCHIFAT 1 24 Oct 11:12:34 11:15:06 16° 65° (ENE) 11:17:37 145.980
ESTCUBE 1 24 Oct 11:22:55 11:25:01 13° 91° (E) 11:27:08 437.505/2401.250
BEESAT 2 24 Oct 11:43:51 11:47:32 36° 115° (ESE) 11:51:15 435.950
EO-88 24 Oct 11:45:06 11:48:10 26° 289° (WNW) 11:51:14 145.990 - 145.960
BEESAT 3 24 Oct 11:49:24 11:53:19 53° 305° (NW) 11:57:17 437.485
ISS 24 Oct 11:53:54 11:54:58 11° 355° (N) 11:56:00 437.550
PRISM 24 Oct 11:57:10 11:58:32 11° 269° (W) 11:59:53 437.425
Max Valier Satellite 24 Oct 12:07:05 12:08:22 12° 295° (WNW) 12:09:38 145.860
Oscar 19 24 Oct 12:09:59 12:11:32 11° 59° (ENE) 12:13:06 437.125/150
EO-79 24 Oct 12:12:52 12:17:08 86° 257° (WSW) 12:21:27 145.935-145.965
AIST 2D 24 Oct 12:18:02 12:20:43 20° 265° (W) 12:23:24 435.315
POLYITAN 1 24 Oct 12:18:57 12:23:14 74° 259° (WSW) 12:27:32 437.675
LO-87 24 Oct 12:19:15 12:22:54 87° 283° (WNW) 12:26:30 145.935 - 145.965
AO-85 24 Oct 12:25:50 12:29:39 63° 119° (ESE) 12:33:34 145.980
VELOX 1 24 Oct 12:29:34 12:30:40 11° 90° (E) 12:31:46 145.980
BUGSAT 1 24 Oct 12:35:48 12:39:34 32° 70° (ENE) 12:43:20 437.445
NANOSAT C BR1 24 Oct 12:38:10 12:42:17 49° 260° (W) 12:46:27 145.865
QB50P2 24 Oct 12:40:00 12:43:58 37° 262° (W) 12:47:59 145.880/145.840
SPROUT 24 Oct 12:43:11 12:46:40 24° 95° (E) 12:50:07 437.525
nSIGHT-1 24 Oct 12:46:12 12:47:20 11° 8° (N) 12:48:26 .
DUCHIFAT 1 24 Oct 12:46:17 12:50:21 45° 261° (W) 12:54:28 145.980
ESTCUBE 1 24 Oct 12:57:45 13:02:09 55° 287° (WNW) 13:06:32 437.505/2401.250
M-CUBED/EXP-1 PRIME 24 Oct 12:58:46 13:01:15 20° 65° (ENE) 13:03:43 437.505
Gurwin Techsat 1B 24 Oct 13:14:41 13:19:22 33° 68° (ENE) 13:24:04 435.225
BEESAT 2 24 Oct 13:22:13 13:25:21 21° 313° (NW) 13:28:32 435.950
50 SAT 24 Oct 13:29:13 13:29:32 10° 92° (E) 13:29:51 437.505
ISS 24 Oct 13:30:33 13:32:32 15° 16° (NNE) 13:34:30 437.550
Oscar 19 24 Oct 13:44:54 13:50:04 89° 77° (ENE) 13:55:14 437.125/150
AO-7 24 Oct 13:55:05 14:01:14 24° 54° (NE) 14:07:22 .
SO-50 24 Oct 13:55:59 13:59:38 23° 46° (NE) 14:03:19 436.795
VELOX 1 24 Oct 14:03:06 14:07:31 66° 286° (WNW) 14:11:55 145.980
AO-85 24 Oct 14:08:27 14:10:29 14° 318° (NW) 14:12:32 145.980
BUGSAT 1 24 Oct 14:11:48 14:14:56 20° 266° (W) 14:18:07 437.445
SPROUT 24 Oct 14:18:49 14:22:31 28° 291° (WNW) 14:26:10 437.525
nSIGHT-1 24 Oct 14:21:35 14:24:25 28° 28° (NNE) 14:27:15 .
ITAMSAT 1 24 Oct 14:30:18 14:33:20 16° 61° (ENE) 14:36:21 435.822/435.867
M-CUBED/EXP-1 PRIME 24 Oct 14:33:12 14:35:38 19° 259° (W) 14:38:02 437.505
DX 1 24 Oct 14:54:17 14:58:40 77° 286° (WNW) 15:03:02 434.975-435.025
Gurwin Techsat 1B 24 Oct 14:54:37 14:59:16 31° 264° (W) 15:03:56 435.225
50 SAT 24 Oct 14:58:54 15:01:59 36° 287° (WNW) 15:05:02 437.505
ISS 24 Oct 15:06:19 15:09:33 58° 35° (NE) 15:12:46 437.550
BEESAT 24 Oct 15:08:06 15:09:41 11° 90° (E) 15:11:16 436.000
UKube-1 24 Oct 15:08:19 15:12:40 85° 281° (WNW) 15:16:59 .
MOZHAYETS 4 24 Oct 15:17:39 15:20:41 17° 92° (E) 15:23:40
PCSat 24 Oct 15:31:40 15:35:23 18° 45° (NE) 15:39:04 145.827
SO-50 24 Oct 15:35:52 15:40:18 46° 243° (WSW) 15:44:46 436.795
AO-7 24 Oct 15:44:47 15:53:05 81° 253° (WSW) 16:01:26 .
nSIGHT-1 24 Oct 15:57:46 16:00:42 33° 224° (SW) 16:03:37 .
ITAMSAT 1 24 Oct 16:07:02 16:12:11 67° 258° (WSW) 16:17:25 435.822/435.867
ITUPSAT 1 24 Oct 16:30:53 16:35:42 86° 104° (ESE) 16:40:29 437.325
DOVE 4 24 Oct 16:36:28 16:39:59 26° 68° (ENE) 16:43:40 437.250
BEESAT 24 Oct 16:43:09 16:47:55 70° 287° (WNW) 16:52:38 436.000
ISS 24 Oct 16:43:49 16:45:41 14° 230° (SW) 16:47:32 437.550
MOZHAYETS 4 24 Oct 16:53:41 16:58:01 43° 288° (WNW) 17:02:19
CUTE-I 24 Oct 17:13:01 17:16:26 18° 62° (ENE) 17:19:51 437.470
PCSat 24 Oct 17:13:57 17:19:22 75° 244° (WSW) 17:24:45 145.827
LilacSat-2 24 Oct 17:17:17 17:19:32 15° 67° (ENE) 17:21:49 437.200
CUBESAT XI-V 24 Oct 17:17:21 17:21:58 73° 102° (ESE) 17:26:34 437.345
XW-2D 24 Oct 17:18:05 17:20:16 15° 67° (ENE) 17:22:27 145.860 - 145.880
XW-2B 24 Oct 17:31:00 17:33:48 20° 69° (ENE) 17:36:37 145.730 - 145.750
AO-7 24 Oct 17:42:50 17:46:59 14° 271° (W) 17:51:09 .
KKS-1 24 Oct 17:45:37 17:49:48 37° 98° (E) 17:53:57 437.445
XW-2C 24 Oct 17:53:43 17:57:14 38° 73° (ENE) 18:00:46 145.795 - 145.815
STARS 24 Oct 18:04:54 18:08:31 24° 95° (E) 18:12:06 437.465
ITUPSAT 1 24 Oct 18:11:36 18:12:47 11° 300° (WNW) 18:13:58 437.325
DOVE 4 24 Oct 18:14:04 18:17:37 26° 266° (W) 18:21:19 437.250
HO-68 24 Oct 18:14:34 18:20:48 34° 62° (ENE) 18:27:04 435.675
KAITUO 1B 24 Oct 18:23:37 18:27:18 67° 75° (ENE) 18:31:00 145.475/437.950
NUDT-PHONESAT 24 Oct 18:29:29 18:33:11 77° 78° (ENE) 18:36:54 437.300
XW-2F 24 Oct 18:33:54 18:37:38 67° 258° (WSW) 18:41:23 145.980 - 146.000
LilacSat-2 24 Oct 18:49:59 18:53:30 35° 262° (W) 18:57:02 437.200
XW-2D 24 Oct 18:50:37 18:54:07 36° 262° (W) 18:57:38 145.860 - 145.880
CUTE-I 24 Oct 18:50:42 18:55:56 62° 258° (WSW) 19:01:15 437.470
SEEDS 24 Oct 18:53:16 18:56:40 25° 69° (ENE) 19:00:04 437.485
CUTE 1.7 + AOD 2 24 Oct 18:55:08 18:59:08 43° 73° (ENE) 19:03:07 437.475
CUBESAT XI-V 24 Oct 18:57:04 18:58:43 12° 298° (WNW) 19:00:21 437.345
AAUSAT CUBESAT 2 24 Oct 19:03:31 19:05:39 14° 65° (ENE) 19:07:49 437.432
XW-2B 24 Oct 19:04:37 19:07:49 26° 264° (W) 19:11:01 145.730 - 145.750
ZACube-1 24 Oct 19:07:21 19:08:53 12° 62° (ENE) 19:10:25 437.345
CUBEBUG 2 24 Oct 19:10:04 19:14:26 39° 72° (ENE) 19:18:52 437.445
YUBILEINY 24 Oct 19:11:49 19:18:45 25° 67° (ENE) 19:25:40 435.215
KKS-1 24 Oct 19:22:46 19:26:04 20° 294° (WNW) 19:29:21 437.445
XW-2C 24 Oct 19:29:40 19:31:34 13° 268° (W) 19:33:28 145.795 - 145.815
O/OREOS (USA 219) 24 Oct 19:33:51 19:37:57 34° 104° (ESE) 19:42:06 437.305
Oscar 11 24 Oct 19:34:52 19:36:48 13° 64° (ENE) 19:38:43 .
UWE-3 24 Oct 19:37:41 19:42:05 44° 72° (ENE) 19:46:32 435.000/436.395/437.385
STARS 24 Oct 19:40:57 19:44:49 30° 291° (WNW) 19:48:40 437.465
HO-68 24 Oct 20:01:25 20:08:16 47° 260° (W) 20:15:10 435.675
BEESAT 2 24 Oct 20:02:11 20:05:15 20° 47° (NE) 20:08:15 435.950
STRAND 1 24 Oct 20:06:13 20:11:09 44° 99° (E) 20:16:01 437.568
BEESAT 3 24 Oct 20:06:29 20:10:27 67° 57° (ENE) 20:14:18 437.485
AO-73 24 Oct 20:14:55 20:19:21 52° 74° (ENE) 20:23:46 145.935
XW-2A 24 Oct 20:19:16 20:22:33 45° 261° (W) 20:25:51 145.665 - 145.685
SEEDS 24 Oct 20:28:47 20:32:15 25° 265° (W) 20:35:44 437.485
CUTE 1.7 + AOD 2 24 Oct 20:32:43 20:35:08 15° 268° (W) 20:37:35 437.475
AAUSAT CUBESAT 2 24 Oct 20:36:45 20:40:41 46° 261° (W) 20:44:39 437.432
FO-29 24 Oct 20:38:31 20:44:09 23° 92° (E) 20:50:01 435.910
ZACube-1 24 Oct 20:39:57 20:44:31 74° 257° (WSW) 20:49:06 437.345
CUBEBUG 2 24 Oct 20:47:38 20:51:09 21° 267° (W) 20:54:44 437.445
AO-85 24 Oct 20:56:33 21:00:58 47° 54° (NE) 21:05:44 145.980
YUBILEINY 24 Oct 21:07:34 21:16:19 71° 267° (W) 21:25:05 435.215
Oscar 11 24 Oct 21:08:08 21:12:25 59° 260° (W) 21:16:41 .
Max Valier Satellite 24 Oct 21:10:03 21:12:42 19° 69° (ENE) 21:15:22 145.860
O/OREOS (USA 219) 24 Oct 21:13:42 21:17:25 24° 302° (WNW) 21:21:09 437.305
UWE-3 24 Oct 21:15:31 21:18:42 18° 268° (W) 21:21:55 435.000/436.395/437.385
DELFI C3 24 Oct 21:18:10 21:21:42 34° 72° (ENE) 21:25:16 145.870
